Find Astrid-2

NORAD ID: 25568 Int'l Des: 1998-072 Owner: SSC Country: S operational
LEOCIRCULARPOLAR

リアルタイム位置

3D地球を読み込み中...

Astrid-2について

説明を読み込み中...

次回通過

Passes for default location (London). Set your location on the main map for personalized predictions.

高度履歴

Loading altitude history...

軌道要素

1 25568U 98072B 26106.12812497 .00000112 00000-0 10486-3 0 9997
2 25568 82.9465 129.6488 0023303 257.0171 162.3179 13.73131388369458
Epoch: Apr 16, 2026 • Age: 15 hours

現在のステータス

高度 999.3 km
速度 7.36 km/s
衛星直下点 -61.08°S, 1.98°W
打ち上げ日 Dec 10, 1998
運用期間 27.3 years
タイプ other

技術仕様

分類 Payload
質量 30.00 kg
乾燥質量 30.00 kg
総質量 30.00 kg
長さ 1.10 m
直径 0.30 m
スパン 1.70 m
形状 Box + 2 Ant
製造者 SSC
バスタイプ Astrid
フェーズステータス Unknown Transfer Status
所有者/国 SSC/S

Most Searched